Location: Newark
(61.8833°N, 30.0500°E)
Time: 12:23:43
(UTC+00:00)

N. Korean satellite - Visible Passes

Search period start: 20 November 2019 00:00
Search period end: 30 November 2019 00:00
Orbit: 456 x 506 km, 97.2° (Epoch: 20 November)

Date Brightness Start Highest point End Pass type
(mag) Time Alt. Az. Time Alt. Az. Time Alt. Az.
20 Nov 10.2 02:33:11 10° ENE 02:34:36 12° E 02:36:00 10° ESE visible
20 Nov 7.2 04:05:03 10° NNE 04:08:47 62° ESE 04:12:27 10° S visible
20 Nov 7.0 14:50:26 10° S 14:54:07 68° WSW 14:57:51 10° NNW visible
20 Nov 10.1 16:26:32 10° WSW 16:28:15 13° W 16:29:58 10° NW visible
21 Nov 8.2 03:39:45 10° NNE 03:43:17 38° E 03:46:45 10° SSE visible
21 Nov 7.2 05:13:13 10° N 05:16:42 37° WNW 05:20:08 10° SW visible
21 Nov 6.6 14:25:01 10° SSE 14:28:42 74° ENE 14:32:27 10° NNW visible
21 Nov 9.6 15:59:47 10° SW 16:02:32 20° W 16:05:20 10° NW visible
22 Nov 9.1 03:14:36 10° NE 03:17:42 24° E 03:20:46 10° SSE visible
22 Nov 6.7 04:47:42 10° N 04:51:23 58° WNW 04:55:02 10° SSW visible
22 Nov 6.9 13:59:48 10° SE 14:03:22 46° ENE 14:06:58 10° N visible
22 Nov 8.8 15:33:37 10° SSW 15:36:55 30° W 15:40:16 10° NNW visible
23 Nov 9.8 02:49:41 10° NE 02:52:02 16° E 02:54:21 10° SE visible
23 Nov 6.6 04:22:16 10° NNE 04:26:01 87° ESE 04:29:43 10° SSW visible
23 Nov 7.7 15:07:46 10° S 15:11:22 48° W 15:15:02 10° NNW visible
24 Nov 10.3 02:26:09 10° ENE 02:26:16 10° E 02:26:25 10° E visible
24 Nov 7.5 03:56:54 10° NNE 04:00:34 53° E 04:04:10 10° S visible
24 Nov 7.5 05:30:34 10° N 05:33:47 28° WNW 05:36:59 10° WSW visible
24 Nov 6.8 14:42:11 10° SSE 14:45:54 79° WSW 14:49:40 10° NNW visible
24 Nov 10.0 16:17:47 10° WSW 16:19:56 15° W 16:22:07 10° NW visible
25 Nov 8.5 03:31:37 10° NNE 03:35:02 32° E 03:38:22 10° SSE visible
25 Nov 7.0 05:04:59 10° N 05:08:32 42° WNW 05:12:00 10° SW visible
25 Nov 6.6 14:16:49 10° SSE 14:20:30 64° ENE 14:24:13 10° NNW visible
25 Nov 9.3 15:51:16 10° SW 15:54:15 22° W 15:57:16 10° NW visible
26 Nov 9.3 03:06:31 10° NE 03:09:24 21° E 03:12:15 10° SE visible
26 Nov 6.5 04:39:29 10° NNE 04:43:11 68° WNW 04:46:50 10° SSW visible
26 Nov 7.1 13:51:40 10° SE 13:55:10 40° ENE 13:58:42 10° N visible
26 Nov 8.4 15:25:12 10° SSW 15:28:39 35° W 15:32:07 10° NNW visible
27 Nov 10.0 02:41:45 10° NE 02:43:42 14° E 02:45:37 10° ESE visible
27 Nov 6.8 04:14:03 10° NNE 04:17:47 75° ESE 04:21:26 10° S visible
27 Nov 7.4 14:59:27 10° S 15:03:07 56° WSW 15:06:49 10° NNW visible
27 Nov 10.2 16:36:22 10° W 16:37:21 11° W 16:38:19 10° WNW visible
28 Nov 7.8 03:48:42 10° NNE 03:52:17 45° E 03:55:48 10° S visible
28 Nov 7.3 05:22:16 10° N 05:25:36 32° WNW 05:28:52 10° WSW visible
28 Nov 6.6 14:33:55 10° SSE 14:37:39 88° ENE 14:41:25 10° NNW visible
28 Nov 9.8 16:09:07 10° SW 16:11:36 17° W 16:14:05 10° NW visible
29 Nov 8.8 03:23:28 10° NNE 03:26:42 28° E 03:29:53 10° SSE visible
29 Nov 6.8 04:56:43 10° N 05:00:18 48° WNW 05:03:49 10° SW visible
29 Nov 6.7 14:08:37 10° SE 14:12:16 55° ENE 14:15:56 10° N visible
29 Nov 9.0 15:42:46 10° SSW 15:45:56 26° W 15:49:07 10° NW visible
